Location: Unspecified
(35.6961°N, 0.0000°E)
Time: 11:03:51
(UTC+00:00)

Vanguard 1 - Visible Passes

Search period start: 20 May 2019 00:00
Search period end: 30 May 2019 00:00
Orbit: 653 x 3830 km, 34.2° (Epoch: 19 May)

Date Brightness Start Highest point End Pass type
(mag) Time Alt. Az. Time Alt. Az. Time Alt. Az.
20 May 13.8 20:12:16 10° W 20:23:42 22° SW 20:38:16 10° S visible
21 May 14.0 20:36:27 10° WSW 20:45:07 15° SW 20:55:21 10° SSW visible
24 May 13.8 19:16:11 10° WSW 19:24:55 18° SW 19:36:14 10° S visible
25 May 14.0 19:41:38 10° SW 19:46:27 12° SW 19:51:55 10° SSW visible
